weather.gov     
National Weather Service

Terminal Aerodrome Forecast
NWS Homepage
This page is being discontinued on March 12, 2014.
The same data is available at this site. Please update your bookmarks.
Thank you, and we apologize for the inconvenience.
Please send an email to SR-SRH.Webmaster@noaa.gov with any concerns.


Current Version
Previous Version:    01  02  03  04  05  06  07  08  09  10  11  12  13  14  15  16  17  18  19  20  21  22  23  
[Printable]
725
FTUS44 KBRO 311100
TAFMFE
TAF
KMFE 311120Z 3112/0112 00000KT P6SM SKC
     FM311500 01006KT P6SM VCTS BKN025CB
      TEMPO 3115/3118 TSRA
     FM311800 02010KT P6SM VCSH OVC050
     FM312100 03011KT P6SM OVC100
     FM010000 01004KT P6SM SKC=


U.S. Dept. of Commerce
NOAA National Weather Service
1325 East West Highway
Silver Spring, MD 20910
E-mail: w-nws.webmaster@noaa.gov
Page last modified: May 16, 2007
NATIONAL WEATHER SERVICE: for Safety, for Work, for Fun - FOR LIFE